International Virtual Aviation Organisation

Russian Federation and Kazakhstan MCD

 

Карточка аэропорта UATE

Внимание!
Информация на этой странице в стадии наполнения.
Если вы не увидели какой-то информации, или заметили неточность - пожалуйста сообщите нам!
Спасибо!
Команда RU-STAFF
Название аэропортаАктау
Название аэропорта (англ.)Aktau
Превышение75 ft. (22.9 m.)
Координаты43°51.138', 51°5.3639999999999'
Высота перехода2050
Эшелон переходаFL40
Коды ответчика3460-3467, 3550-3557
Зона ОрВДАктобе РПИ (UATT)
Данные METARUATE 031930Z 05006MPS CAVOK M08/M11 Q1035 R12/0///70 NOSIG RMK QFE774/1033
Проноз погоды (TAF)UATE 031701Z 0318/0418 05007MPS CAVOK TX01/0411Z TNM09/0404Z TEMPO 0318/0404 3100 BR SCT011
NOTAMshow/hide NOTAM
AWOS   TABLE

Информация о ВПП

ВПП Длина ВПП (м.) Покрытие Курс ВПП Частота ILS
123052Асфальтобетон122109.5
303052Асфальт302111.1

Диспетчерские позиции

Позывной Наименование органа УВД Частота
UATE_APPАктау Поход134.3
UATE_TWRАктау Вышка120.7



Спутниковое изображение